This is the latest recevied weather packets stored in our database for station/object IU7LMH-13. If no packets are shown the sender has not sent any weather packets the latest 10 day(s).
| Time | Temp. | Humidity | Pressure | Rain* | Wind** | Luminosity | Snow |
|---|---|---|---|---|---|---|---|
| 1777429844 | 14.44° C | 93% | 1015.6 hPa | 0 mm | - | - | - |
| 1777429718 | 14.44° C | 93% | 1015.6 hPa | 0 mm | - | - | - |
| 1777429597 | 14.44° C | 93% | 1015.5 hPa | 0 mm | - | - | - |
| 1777426718 | 14.44° C | 93% | 1015.4 hPa | 0 mm | - | - | - |
| 1777425877 | 14.44° C | 92% | 1015.2 hPa | 0 mm | - | - | - |
| 1777425518 | 14.44° C | 92% | 1015.3 hPa | 0 mm | - | - | - |
| 1777425158 | 15° C | 92% | 1015.2 hPa | 0 mm | - | - | - |
| 1777423841 | 15° C | 93% | 1015.4 hPa | 0 mm | - | - | - |
| 1777422158 | 15.56° C | 93% | 1015.5 hPa | 0 mm | - | - | - |
| 1777421678 | 15.56° C | 93% | 1015.7 hPa | 0 mm | - | - | - |
| 1777420599 | 16.11° C | 93% | 1015.6 hPa | 0 mm | - | - | - |
| 1777420358 | 15.56° C | 93% | 1015.8 hPa | 0 mm | - | - | - |
| 1777420240 | 15.56° C | 93% | 1015.7 hPa | 0 mm | - | - | - |
| 1777420117 | 15.56° C | 93% | 1015.8 hPa | 0 mm | - | - | - |
| 1777419758 | 15.56° C | 93% | 1015.8 hPa | 0 mm | - | - | - |
| 1777418556 | 15.56° C | 93% | 1015.8 hPa | 0 mm | - | - | - |
| 1777418078 | 16.11° C | 93% | 1016 hPa | 0 mm | - | - | - |
| 1777416278 | 16.67° C | 93% | 1016 hPa | 0 mm | - | - | - |
| 1777416045 | 16.67° C | 93% | 1016.2 hPa | 0 mm | - | - | - |
| 1777415798 | 16.67° C | 93% | 1016.1 hPa | 0 mm | - | - | - |
| 1777415197 | 16.67° C | 93% | 1016.2 hPa | 0 mm | - | - | - |
| 1777414597 | 16.11° C | 92% | 1016.3 hPa | 0 mm | - | - | - |
| 1777414115 | 16.11° C | 92% | 1016 hPa | 0 mm | - | - | - |
| 1777411477 | 15.56° C | 92% | 1016 hPa | 0 mm | - | - | - |
| 1777409078 | 16.11° C | 91% | 1016.1 hPa | 0 mm | - | - | - |
* Rain latest hour (hover to see other rain measurements)
** Current wind speed in m/s (hover to see current wind gust speed)